Weather History for EIME - January, 2014

Change the Weather History Date:

Friday, January 10, 2014

  Actual Average (EIDW) Record (EIDW)
Temperature  
Mean Temperature 42 °F -  
Max Temperature 48 °F 45 °F 60 °F (1998)
Min Temperature 35 °F 35 °F 24 °F (1999)
Degree Days  
Heating Degree Days 24    
Moisture  
Dew Point 41 °F    
Average Humidity 88    
Maximum Humidity 100    
Minimum Humidity 75    
Precipitation  
Precipitation 0.20 in - - ()
Sea Level Pressure  
Sea Level Pressure 29.75 in    
Wind  
Wind Speed 14 mph ()    
Max Wind Speed 24 mph    
Max Gust Speed 34 mph    
Visibility 9.1 miles    
Events Rain    
Averages and records for this station are not official NWS values.
T = Trace of Precipitation, MM = Missing Value Source: Averaged Metar Reports

Daily Weather History Graph

Daily Weather History Graph

Search for Another Location

Airport or City:

Trip Planner

Search our weather history database for the weather conditions in past years. The results will help you decide how hot, cold, wet, or windy it might be!

Date:

Astronomy

Jan. 10, 2014 Rise Set
Actual Time 8:37 AM GMT 4:29 PM GMT
Civil Twilight 7:55 AM GMT 5:11 PM GMT
Nautical Twilight 7:11 AM GMT 5:55 PM GMT
Astronomical Twilight 6:29 AM GMT 6:37 PM GMT
Moon 12:38 PM GMT (1/10) 3:14 AM GMT (1/10)
Length of Visible Light 9h 15m
Length of Day
7h 52m
Waxing Gibbous, 73% of the Moon is Illuminated
Jan 10
Waxing Gibbous
Jan 16
Full
Jan 24
Last Quarter
Jan 30
New
Feb 6
First Quarter

Hourly Weather History & Observations

Time (GMT) Temp. Windchill Dew Point Humidity Pressure Visibility Wind Dir Wind Speed Gust Speed Precip Events Conditions
12:00 AM 41.0 °F 32.8 °F 37.4 °F 87% 29.80 in 6.2 mi SW 16.1 mph - N/A   Mostly Cloudy
1:00 AM 41 °F - 36 °F 75% 29.80 in 19 mi SW 15.7 mph - -   Scattered Clouds
1:00 AM 41.0 °F 33.1 °F 35.6 °F 81% 29.77 in 6.2 mi SSW 15.0 mph - N/A   Mostly Cloudy
2:00 AM 42 °F - 37 °F 75% 29.79 in 19 mi SSW 15.7 mph - -   Scattered Clouds
2:00 AM 42.8 °F 35.1 °F 37.4 °F 81% 29.77 in 6.2 mi SSW 16.1 mph - N/A   Mostly Cloudy
3:00 AM 42 °F - 37 °F 77% 29.79 in 19 mi SSW 15.7 mph - -   Scattered Clouds
3:00 AM 42.8 °F 35.1 °F 37.4 °F 81% 29.77 in 6.2 mi SW 16.1 mph - N/A   Mostly Cloudy
4:00 AM 43 °F - 39 °F 79% 29.78 in 19 mi SSW 15.7 mph - -   Scattered Clouds
4:00 AM 42.8 °F 34.0 °F 39.2 °F 87% 29.74 in 6.2 mi SSW 20.7 mph - N/A   Mostly Cloudy
5:00 AM 44 °F - 40 °F 79% 29.75 in 19 mi SSW 20.1 mph - -   Scattered Clouds
5:00 AM 44.6 °F 37.4 °F 39.2 °F 81% 29.74 in 6.2 mi SSW 16.1 mph 27.6 mph N/A   Mostly Cloudy
6:00 AM 45 °F - 40 °F 78% 29.74 in 16 mi SSW 17.9 mph - -   Scattered Clouds
6:00 AM 44.6 °F 37.4 °F 41.0 °F 87% 29.71 in 6.2 mi SSW 16.1 mph - N/A   Mostly Cloudy
7:00 AM 45 °F - 41 °F 82% 29.73 in 16 mi SSW 20.1 mph - -   Scattered Clouds
7:00 AM 44.6 °F 36.9 °F 41.0 °F 87% 29.71 in 6.2 mi SSW 18.4 mph - N/A   Mostly Cloudy
8:00 AM 46 °F - 42 °F 79% 29.72 in 16 mi SSW 20.1 mph - -   Scattered Clouds
8:00 AM 46.4 °F 38.7 °F 41.0 °F 81% 29.71 in 6.2 mi SSW 20.7 mph - N/A   Mostly Cloudy
8:30 AM 46.4 °F 38.1 °F 41.0 °F 81% 29.68 in 6.2 mi SSW 24.2 mph - N/A   Mostly Cloudy
9:00 AM 46 °F - 42 °F 81% 29.71 in 25 mi SSW 22.4 mph - -   Scattered Clouds
9:00 AM 46.4 °F 38.1 °F 42.8 °F 87% 29.68 in 6.2 mi SSW 24.2 mph - N/A   Mostly Cloudy
9:30 AM 46.4 °F 38.1 °F 42.8 °F 87% 29.71 in 6.2 mi SSW 24.2 mph - N/A   Mostly Cloudy
10:00 AM 47 °F - 43 °F 82% 29.73 in 28 mi SSW 22.4 mph - -   Partly Cloudy
10:00 AM 46.4 °F 39.0 °F 42.8 °F 87% 29.71 in 6.2 mi SSW 19.6 mph - N/A   Mostly Cloudy
10:30 AM 48.2 °F - 42.8 °F 82% 29.71 in 6.2 mi SSW 19.6 mph 34.5 mph N/A   Mostly Cloudy
11:00 AM 48 °F - 44 °F 81% 29.73 in 22 mi SSW 20.1 mph - -   Mostly Cloudy
11:00 AM 48.2 °F - 44.6 °F 87% 29.71 in 6.2 mi SSW 20.7 mph - N/A   Mostly Cloudy
11:30 AM 48.2 °F - 44.6 °F 87% 29.71 in 6.2 mi SSW 19.6 mph - N/A Rain Light Rain
12:00 PM 48 °F - 45 °F 87% 29.71 in 9 mi SSW 17.9 mph - - Rain Light Rain
12:00 PM 48.2 °F - 44.6 °F 87% 29.68 in 6.2 mi SSW 13.8 mph - N/A Rain Light Rain
12:30 PM 48.2 °F - 46.4 °F 93% 29.68 in 6.2 mi SSW 18.4 mph - N/A   Mostly Cloudy
1:00 PM 46 °F - 44 °F 90% 29.71 in 9 mi WSW 20.1 mph - - Rain Light Rain
1:00 PM 46.4 °F 41.1 °F 44.6 °F 93% 29.68 in 6.2 mi WSW 11.5 mph - N/A Rain Light Rain
1:30 PM 46.4 °F 40.7 °F 44.6 °F 93% 29.71 in 6.2 mi WSW 12.7 mph - N/A Rain Light Rain
2:00 PM 46 °F - 44 °F 89% 29.72 in 7 mi WSW 13.4 mph - - Rain Light Rain
2:00 PM 46.4 °F 40.7 °F 44.6 °F 93% 29.71 in 6.2 mi WSW 12.7 mph - N/A Rain Light Rain
2:30 PM 44.6 °F 39.2 °F 42.8 °F 93% 29.71 in 5.6 mi WSW 10.4 mph - N/A Rain Light Rain
3:00 PM 44 °F - 43 °F 96% 29.73 in 7 mi WSW 8.9 mph - - Rain Light Rain
3:00 PM 44.6 °F 40.2 °F 42.8 °F 93% 29.71 in 6.2 mi SW 8.1 mph - N/A Rain Light Rain
4:00 PM 45 °F - 43 °F 91% 29.74 in 10 mi WSW 6.7 mph - - Rain Light Rain
4:00 PM 44.6 °F 40.2 °F 42.8 °F 93% 29.71 in 6.2 mi SW 8.1 mph - N/A   Overcast
5:00 PM 43 °F - 42 °F 94% 29.76 in 3 mi West 6.7 mph - - Rain Light Rain
5:00 PM 42.8 °F 40.1 °F 41.0 °F 93% 29.74 in 6.2 mi West 4.6 mph - N/A Rain Light Rain
6:00 PM 42 °F - 41 °F 97% 29.80 in 9 mi WNW 4.5 mph - - Rain Light Rain
6:00 PM 42.8 °F 40.1 °F 41.0 °F 93% 29.77 in 6.2 mi West 4.6 mph - N/A Rain Light Rain
7:00 PM 41 °F - 40 °F 95% 29.81 in 16 mi SW 4.5 mph - - Rain Light Rain
7:00 PM 41.0 °F 38.0 °F 39.2 °F 93% 29.77 in 6.2 mi SSW 4.6 mph - N/A Rain Light Rain
8:00 PM 36 °F - 36 °F 98% 29.83 in 12 mi WSW 6.7 mph - - Rain Light Rain
8:00 PM 35.6 °F 29.9 °F 35.6 °F 100% 29.80 in 6.2 mi WSW 6.9 mph - N/A   Mostly Cloudy
9:00 PM 38 °F - 38 °F 98% 29.86 in 16 mi WSW 11.2 mph - -   Partly Cloudy
9:00 PM 37.4 °F 29.8 °F 37.4 °F 100% 29.83 in 6.2 mi SW 11.5 mph - N/A   Scattered Clouds
10:00 PM 36 °F - 35 °F 94% 29.87 in 16 mi WSW 11.2 mph - -   Scattered Clouds
10:00 PM 37.4 °F 30.3 °F 35.6 °F 93% 29.83 in 6.2 mi WSW 10.4 mph - N/A   Partly Cloudy
11:00 PM 36 °F - 35 °F 94% 29.88 in 14 mi SW 11.2 mph - -   Scattered Clouds
11:00 PM 35.6 °F 27.1 °F 35.6 °F 100% 29.86 in 6.2 mi SW 12.7 mph - N/A   Partly Cloudy